SL-8 DEB *

Satellite information

Favourite Embed

Satellite Type and Status

DEBRISIN ORBIT

Key statistics

Satellite SL-8 DEB * at a glance.

Uptime

15581

Days in orbit

Revolutions

≈ 14.6

Per day

Orbit

LEO

Low Earth Orbit

Inclination

74.0

Latest

Satellite identification and parameters

Extended collection of information and parameters for SL-8 DEB *.

Object identification

Identified? True

Debris? True

Object name: SL-8 DEB *

International designator: 1982-109D

Object number (NORAD): 15528

Object ID (CCSDS): 15528

Country: COMMONWEALTH OF INDEPENDENT STATES (CIS)

Current information (Y/N): Y

RCS size: SMALL

Orbital parameters

Period: 98.416 minutes

Inclination: 74.0189 deg

SMA: 7061.094 km

Apoapsis: 690.547 km

Periapsis: 675.371 km

RAAN: 14.9626 deg

Eccentricy: 0.0010746

Argument of periapsis: 189.3336 deg

Mean anomaly: 197.9415 deg

Mean motion: 14.63169975 rev/day

Mean motion (dot): 0.00001615 rev/day2

B* drag term: 0.00031944 1/REarth

Two-line elements (TLE)

Creation date: July 8, 2025, 5:26 p.m.

Reference frame: TEME

Reference center: EARTH

Epoch: July 8, 2025, 11:36 a.m. UTC

TLE line 0: 0 SL-8 DEB *

TLE line 1: 1 15528U 82109D 25189.48389038 .00001615 00000-0 31944-3 0 9996

TLE line 2: 2 15528 74.0189 14.9626 0010746 189.3336 197.9415 14.63169975166809

Live tracking on map

Real-time ground track for satellite SL-8 DEB *.

In-orbit conjunctions

A list of the most updated potential collisions computed for object SL-8 DEB *.

Target Orbit TCA Probability of collision Miss distance Type
SL-8 R/B LEO 2024-09-04 14:02:09 0.0001269528 816.0 (m) ROCKET BODY

Associated space launch

Military communications satellite

SL-8 DEB * was lifted into orbit during the mission ‘Kosmos-3M | Strela-2M 30’, on board a Kosmos-3M space rocket.

The launch took place on Nov. 11, 1982, 6:14 a.m. from 132/1 (132L).

For more information about the launch, click the button.

Launch to space Kosmos-3M | Strela-2M 30
Kosmos-3M | Strela-2M 30

Agency: N/A

Status: Launch Successful

Launch date: Nov. 11, 1982, 6:14 a.m. UTC

Rocket: Kosmos-3M

Launch pad: 132/1 (132L)

Location: Plesetsk Cosmodrome, Russian Federation

...

Latest news about this satellite

There are no fresh news available about this satellite. Check back as we update our databases every day.


Newsletter sign-up

Weekly statistics, charts and insights to help you stay on top of the space industry.